Location: Ravensburg
(47.7866°N, 9.6124°E)
Time: 08:14:45
(UTC+01:00)

UWE-3 - Visible Passes

Search period start: 11 March 2026 00:00
Search period end: 21 March 2026 00:00
Orbit: 545 x 612 km, 97.9° (Epoch: 10 March)

Date Brightness Start Highest point End Pass type
(mag) Time Alt. Az. Time Alt. Az. Time Alt. Az.
11 Mar ? 03:08:05 10° NNE 03:09:14 18° NNE 03:09:14 18° NNE visible
11 Mar ? 04:44:38 10° NNW 04:45:32 13° NW 04:45:32 13° NW visible
12 Mar ? 03:12:34 10° NNE 03:13:54 20° NNE 03:13:54 20° NNE visible
12 Mar ? 04:49:21 10° NNW 04:50:13 12° NW 04:50:13 12° NW visible
13 Mar ? 03:17:04 10° NNE 03:18:35 21° NNE 03:18:35 21° NNE visible
13 Mar ? 04:54:07 10° NNW 04:54:54 12° NW 04:54:54 12° NW visible
14 Mar ? 03:21:33 10° NNE 03:23:15 23° NNE 03:23:15 23° NNE visible
14 Mar ? 04:58:56 10° NW 04:59:33 11° NW 04:59:33 11° NW visible
15 Mar ? 03:26:02 10° N 03:27:53 25° N 03:27:53 25° N visible
15 Mar ? 05:03:55 10° NW 05:04:12 10° NW 05:04:12 10° NW visible
16 Mar ? 03:30:31 10° N 03:32:32 27° N 03:32:32 27° N visible
17 Mar ? 03:34:58 10° N 03:37:08 28° N 03:37:08 28° N visible
18 Mar ? 02:05:24 10° NE 02:05:27 10° NE 02:05:27 10° NE visible
18 Mar ? 03:39:27 10° N 03:41:45 30° N 03:41:45 30° N visible
19 Mar ? 02:09:37 10° NE 02:10:03 12° NE 02:10:03 12° NE visible
19 Mar ? 03:43:54 10° N 03:46:21 31° NNW 03:46:21 31° NNW visible
20 Mar ? 02:13:52 10° NE 02:14:38 13° NE 02:14:38 13° NE visible
20 Mar ? 03:48:21 10° N 03:50:56 32° NNW 03:50:56 32° NNW visible
